STARLINK-34007

Satellite information

Favourite Embed

Satellite Type and Status

PAYLOADIN ORBIT

Key statistics

Satellite STARLINK-34007 at a glance.

Uptime

217

Days in orbit

Revolutions

≈ 15.0

Per day

Orbit

LEO

Low Earth Orbit

Inclination

70.0

Latest

Satellite identification and parameters

Extended collection of information and parameters for STARLINK-34007.

Object identification

Identified? True

Debris? False

Object name: STARLINK-34007

International designator: 2025-094E

Object number (NORAD): 63868

Object ID (CCSDS): 63868

Country: UNITED STATES OF AMERICA (US)

Current information (Y/N): Y

RCS size: LARGE

Orbital parameters

Period: 96.105 minutes

Inclination: 70.0008 deg

SMA: 6950.112 km

Apoapsis: 574.278 km

Periapsis: 569.675 km

RAAN: 95.0591 deg

Eccentricy: 0.00033113

Argument of periapsis: 265.9331 deg

Mean anomaly: 94.145 deg

Mean motion: 14.98356292 rev/day

Mean motion (dot): 0.00008816 rev/day2

B* drag term: 0.00074519875 1/REarth

Two-line elements (TLE)

Creation date: Dec. 12, 2025, 10:14 a.m.

Reference frame: TEME

Reference center: EARTH

Epoch: Dec. 12, 2025, 6:23 a.m. UTC

TLE line 0: 0 STARLINK-34007

TLE line 1: 1 63868U 25094E 25346.26606313 .00008816 00000-0 74520-3 0 9992

TLE line 2: 2 63868 70.0008 95.0591 0003311 265.9331 94.1450 14.98356292 34104

Live tracking on map

Real-time ground track for satellite STARLINK-34007.

In-orbit conjunctions

There are no conjunctions computed for STARLINK-34007, at the moment. Check back to stay up to date, as we update our databases every day.

Go to all conjunctions

Associated space launch

A batch of 26 satellites for the Starlink mega-constellation - SpaceX's project for space-based Internet communication system.

STARLINK-34007 was lifted into orbit during the mission ‘Falcon 9 Block 5 | Starlink Group 15-3’, on board a Falcon 9 space rocket.

The launch took place on May 10, 2025, 12:19 a.m. from Space Launch Complex 4E.

For more information about the launch, click the button.

Launch to space Falcon 9 Block 5 | Starlink Group 15-3
Falcon 9 Block 5 | Starlink Group 15-3

Agency: SpaceX

Status: Launch Successful

Launch date: May 10, 2025, 12:19 a.m. UTC

Rocket: Falcon 9

Launch pad: Space Launch Complex 4E

Location: Vandenberg SFB, CA, USA

...

Latest news about this satellite

News about space launch
Live coverage: SpaceX to launch 26 Starlink satellites on Falcon 9 rocket from Vandenberg

The mission is launching after a six-day delay. Liftoff of the Starlink 15-3 mission from pad 4 East at Vandenberg Space Force Base is targeting 5:03 p.m. PDT (8:03 p.m. EDT, 0003 UTC).

News about space launch
Launch Roundup: SpaceX to launch 250th mission from SLC-40

SpaceX is on course to launch its 250th mission from SLC-40 in Florida this week.… The post Launch Roundup: SpaceX to launch 250th mission from SLC-40 appeared first on NASASpaceFlight.com.

News about space launch
Live coverage: SpaceX to launch 26 Starlink satellites on Falcon 9 rocket from Vandenberg

With this mission, SpaceX will have launched more than 800 Starlink V2 Mini satellites in 2025. Liftoff is targeting 11:13 a.m. PDT (2:13 p.m. EDT, 1813 UTC).


Newsletter sign-up

Weekly statistics, charts and insights to help you stay on top of the space industry.